Location: Julian California
(33.0790°N, 116.6010°W)
Time: 22:18:55
(UTC-07:00)

Cosmos 1603 - Pass Details

Date: 14 June 2018
Orbit: 830 x 861 km, 71.0° (Epoch: 20 August)

Event Time Altitude Azimuth Distance (km) Brightness Sun altitude
Rises 21:38:11 0° 340° (NNW) 3,412 8.0 -17.9°
Reaches altitude 10° 21:40:38 10° 341° (NNW) 2,478 7.1 -18.3°
Maximum altitude 21:46:20 84° 68° (ENE) 862 3.6 -19.1°
Enters shadow 21:48:59 34° 156° (SSE) 1,379 4.3 -19.5°
